Palma de Mallorca, Spain

4:42 AM CEST on October 20, 2017 (GMT +0200)
Palma De Mallorca

Weather History for LEPA - January, 2013

Change the Weather History Date:

Sunday, January 27, 2013

  Actual Average Record
Temperature  
Mean Temperature 47 °F -  
Max Temperature 59 °F 57 °F 68 °F (2003)
Min Temperature 35 °F 39 °F 24 °F (2005)
Degree Days  
Heating Degree Days 18    
Moisture  
Dew Point 46 °F    
Average Humidity 90    
Maximum Humidity 100    
Minimum Humidity 68    
Precipitation  
Precipitation 0.01 in 0.05 in - ()
Sea Level Pressure  
Sea Level Pressure 30.03 in    
Wind  
Wind Speed 2 mph ()    
Max Wind Speed 14 mph    
Max Gust Speed -    
Visibility 6.6 miles    
Events Fog , Rain    
Averages and records for this station are not official NWS values.
T = Trace of Precipitation, MM = Missing Value Source: Averaged Metar Reports

Daily Weather History Graph

Daily Weather History Graph

Search for Another Location

Airport or City:

Trip Planner

Search our weather history database for the weather conditions in past years. The results will help you decide how hot, cold, wet, or windy it might be!

Date:

Astronomy

Jan. 27, 2013 Rise Set
Actual Time 8:00 AM CET 6:03 PM CET
Civil Twilight 7:32 AM CET 6:32 PM CET
Nautical Twilight 6:59 AM CET 7:04 PM CET
Astronomical Twilight 6:27 AM CET 7:36 PM CET
Moon 6:41 PM CET (1/27) 7:45 AM CET (1/27)
Length of Visible Light 10h 59m
Length of Day
10h 02m
Full, 100% of the Moon is Illuminated
Jan 27
Full
Feb 3
Last Quarter
Feb 10
New
Feb 17
First Quarter
Feb 25
Full

Hourly Weather History & Observations

Time (CET) Temp. Windchill Dew Point Humidity Pressure Visibility Wind Dir Wind Speed Gust Speed Precip Events Conditions
12:00 AM 41.0 °F - 39.2 °F 93% 30.12 in 6.2 mi Calm Calm - N/A   Partly Cloudy
12:30 AM 39.2 °F - 37.4 °F 93% 30.12 in 6.2 mi ENE 1.2 mph - N/A   Partly Cloudy
1:00 AM 38 °F - 36 °F 89% 30.14 in 9 mi Calm Calm - -   Scattered Clouds
1:00 AM 39.2 °F - 37.4 °F 93% 30.12 in 6.2 mi Calm Calm - N/A   Partly Cloudy
1:30 AM 37.4 °F - 37.4 °F 100% 30.12 in 6.2 mi Calm Calm - N/A   Partly Cloudy
2:00 AM 39.2 °F - 37.4 °F 93% 30.12 in 6.2 mi NE 1.2 mph - N/A   Partly Cloudy
2:30 AM 39.2 °F - 39.2 °F 100% 30.12 in 6.2 mi Calm Calm - N/A   Partly Cloudy
3:00 AM 39.2 °F - 37.4 °F 93% 30.12 in 6.2 mi Calm Calm - N/A   Partly Cloudy
3:30 AM 39.2 °F 37.0 °F 37.4 °F 93% 30.09 in 6.2 mi North 3.5 mph - N/A   Partly Cloudy
4:00 AM 39.2 °F - 37.4 °F 93% 30.09 in 6.2 mi ESE 1.2 mph - N/A   Partly Cloudy
4:30 AM 37.4 °F - 37.4 °F 100% 30.09 in 6.2 mi Calm Calm - N/A   Partly Cloudy
5:00 AM 37.4 °F - 37.4 °F 100% 30.06 in 6.2 mi Calm Calm - N/A   Partly Cloudy
5:30 AM 37.4 °F - 37.4 °F 100% 30.06 in 6.2 mi North 2.3 mph - N/A   Partly Cloudy
6:00 AM 39.2 °F - 37.4 °F 93% 30.06 in 6.2 mi North 1.2 mph - N/A   Partly Cloudy
6:30 AM 39.2 °F - 37.4 °F 93% 30.06 in 6.2 mi Calm Calm - N/A   Partly Cloudy
7:00 AM 35 °F - 34 °F 95% 30.08 in 9 mi Calm Calm - -   Scattered Clouds
7:00 AM 37.4 °F - 35.6 °F 93% 30.06 in 6.2 mi Calm Calm - N/A   Partly Cloudy
7:30 AM 35.6 °F - 35.6 °F 100% 30.06 in 6.2 mi Calm Calm - N/A   Partly Cloudy
8:00 AM 35.6 °F - 35.6 °F 100% 30.06 in 3.7 mi Calm Calm - N/A Fog Fog
8:30 AM 37.4 °F - 35.6 °F 93% 30.06 in 5.0 mi Calm Calm - N/A Fog Patches of Fog
9:00 AM 41.0 °F - 39.2 °F 93% 30.06 in 6.2 mi Calm Calm - N/A Fog Patches of Fog
9:30 AM 42.8 °F - 42.8 °F 100% 30.06 in 6.2 mi Calm Calm - N/A   Partly Cloudy
10:00 AM 48.2 °F - 48.2 °F 100% 30.06 in 6.2 mi Calm Calm - N/A   Partly Cloudy
10:30 AM 51.8 °F - 50.0 °F 94% 30.06 in 6.2 mi Calm Calm - N/A   Partly Cloudy
11:00 AM 53.6 °F - 51.8 °F 94% 30.06 in 6.2 mi Calm Calm - N/A   Partly Cloudy
11:30 AM 57.2 °F - 51.8 °F 82% 30.06 in 6.2 mi Variable 2.3 mph - N/A   Scattered Clouds
12:00 PM 59.0 °F - 55.4 °F 88% 30.06 in 6.2 mi SW 10.4 mph - N/A   Partly Cloudy
12:30 PM 59.0 °F - 55.4 °F 88% 30.06 in 6.2 mi SW 11.5 mph - N/A   Partly Cloudy
1:00 PM 58 °F - 50 °F 68% 30.05 in 12 mi SW 13.8 mph - -   Overcast
1:00 PM 59.0 °F - 53.6 °F 82% 30.04 in 6.2 mi SW 11.5 mph - N/A   Partly Cloudy
1:30 PM 59.0 °F - 53.6 °F 82% 30.01 in - SW 9.2 mph - N/A   Clear
2:00 PM 59.0 °F - 51.8 °F 77% 30.01 in - SW 11.5 mph - N/A   Clear
2:30 PM 59.0 °F - 51.8 °F 77% 30.01 in - SW 10.4 mph - N/A   Clear
3:00 PM 59.0 °F - 50.0 °F 72% 30.01 in - SW 8.1 mph - N/A   Clear
3:30 PM 59.0 °F - 51.8 °F 77% 29.98 in - SW 10.4 mph - N/A   Clear
4:00 PM 57.2 °F - 53.6 °F 88% 29.98 in - SW 8.1 mph - N/A   Clear
4:30 PM 57.2 °F - 51.8 °F 82% 29.98 in - WSW 8.1 mph - N/A   Clear
5:00 PM 57.2 °F - 53.6 °F 88% 29.98 in - WSW 5.8 mph - N/A   Clear
5:30 PM 57.2 °F - 51.8 °F 82% 29.98 in - SW 6.9 mph - N/A   Clear
6:00 PM 55.4 °F - 51.8 °F 88% 29.98 in - SW 6.9 mph - N/A   Clear
6:30 PM 55.4 °F - 51.8 °F 88% 29.98 in - South 2.3 mph - N/A   Clear
7:00 PM 55 °F - 49 °F 75% 29.96 in 12 mi SSW 8.1 mph - -   Overcast
7:00 PM 57.2 °F - 51.8 °F 82% 29.95 in - SSW 4.6 mph - N/A   Clear
7:30 PM 57.2 °F - 51.8 °F 82% 29.95 in - SSW 3.5 mph - N/A   Clear
8:00 PM 55.4 °F - 51.8 °F 88% 29.95 in - Variable 1.2 mph - N/A   Clear
8:30 PM 55.4 °F - 51.8 °F 88% 29.95 in - SW 3.5 mph - N/A   Clear
9:00 PM 55.4 °F - 51.8 °F 88% 29.92 in - SSW 3.5 mph - N/A   Clear
9:30 PM 55.4 °F - 51.8 °F 88% 29.92 in - WSW 2.3 mph - N/A   Clear
10:00 PM 55.4 °F - 53.6 °F 94% 29.92 in - South 2.3 mph - N/A   Clear
10:30 PM 55.4 °F - 53.6 °F 94% 29.89 in - Calm Calm - N/A   Clear
11:00 PM 55.4 °F - 51.8 °F 88% 29.89 in 6.2 mi SSW 1.2 mph - N/A   Partly Cloudy
11:30 PM 55.4 °F - 53.6 °F 94% 29.89 in 6.2 mi SW 6.9 mph - N/A Rain Light Rain